User: anonymous   Login
Location: Unspecified
(0.0000°N, 0.0000°E)
Time: 08:21:08
(UTC+00:00)
Language:

XW-2C - Orbit

View from above orbital plane
View from above orbital plane
View from above satellite
View from above satellite

Ground track
Ground track

The orbit data is extracted from the following two-line orbital elements,

1 40906U 15049H   23266.01338342  .00018194  00000-0  64518-3 0  9991
2 40906  97.4956 273.6565 0011513 165.2432 194.9146 15.29074864443336
Epoch (UTC): 23 September 2023 00:19:16
Eccentricity: 0.0011513
inclination: 97.4956°
perigee height: 470 km
apogee height: 486 km
right ascension of ascending node: 273.6565°
argument of perigee: 165.2432°
revolutions per day: 15.29074864
mean anomaly at epoch: 194.9146°
orbit number at epoch: 44333

The dashed part of the orbit path shows where the satellite is in the earth's shadow,  

DLR